weather.gov     
National Weather Service

Terminal Aerodrome Forecast
NWS Homepage
This page is being discontinued on March 12, 2014.
The same data is available at this site. Please update your bookmarks.
Thank you, and we apologize for the inconvenience.
Please send an email to SR-SRH.Webmaster@noaa.gov with any concerns.


Current Version
Previous Version:    01  02  03  04  05  06  07  08  09  10  11  12  13  14  15  16  17  18  19  20  21  22  23  24  25  26  27  
[Printable]
940
FTUS45 KCYS 252321
TAFAIA
TAF
KAIA 252321Z 2600/2624 31015G25KT P6SM BKN080
     FM261200 32008KT P6SM VCSH OVC020
     FM262000 29010KT P6SM BKN050=




940
FTUS45 KCYS 252321
TAFAIA
TAF
KAIA 252321Z 2600/2624 31015G25KT P6SM BKN080
     FM261200 32008KT P6SM VCSH OVC020
     FM262000 29010KT P6SM BKN050=


U.S. Dept. of Commerce
NOAA National Weather Service
1325 East West Highway
Silver Spring, MD 20910
E-mail: w-nws.webmaster@noaa.gov
Page last modified: May 16, 2007
NATIONAL WEATHER SERVICE: for Safety, for Work, for Fun - FOR LIFE